{"data":{"norad_id":68453,"epoch":"2026-05-25T03:11:20.272992Z","epoch_age_seconds":66840,"freshness":"FRESH","line1":"1 68453U 26067AP  26145.13287353  .00006486  00000+0  31821-3 0  9998","line2":"2 68453  97.4536 103.9536 0004336  96.3639 263.8089 15.18433503  8446","mean_motion":15.18433503,"eccentricity":0.0004336,"inclination_deg":97.4536,"raan_deg":103.9536,"arg_perigee_deg":96.3639,"mean_anomaly_deg":263.8089,"bstar":0.00031821,"rev_number":844,"period_min":94.834577685158,"perigee_km":507.58744046344,"apogee_km":513.56133097714,"semimajor_km":6888.7113857203,"source":"CELESTRAK","updated_at":"2026-05-25T13:38:07.843061Z"}}